Voltar ao catálogo

STARLINK-30076

AtivoComunicaçõesVLEO
NORAD 56839·PAYLOAD·🇺🇸 United States

Lançado Jun 4, 2023 de Cape Canaveral Space Force Station

Loading…

Próximas Passagens (próximas 24 horas)

TLE

AtualizadoSource: CelesTrak SupGP

Época: Sep 15, 2026, 02:25 UTC

1 56839C 23079S   26258.10118056  .00059481  00000+0  21547-2 0  2582
2 56839  43.0008 117.3368 0001546 277.6846 179.3004 15.27544436    19

Acompanhe STARLINK-30076 em tempo real com AllMySat

Download on the App Store